EW9434 Weather Reports


Display with metric or nautical units.
time (UTC)temp
F
wind
direction
speed
MPH
gust
MPH
rain 1hr
in
rain 24hr
in
rain mn
in
humidity
%
barometer
mb
20260510170027 69 209 2.0 5.0 0.00 0.00 0.00 42 1015.4
20260510165952 69 234 2.0 5.0 0.00 0.00 0.00 43 1015.8
20260510165226 69 44 2.0 5.0 0.00 0.00 0.00 44 1015.8
20260510164723 69 354 2.0 6.0 0.00 0.00 0.00 43 1015.8
20260510164554 69 355 2.0 5.0 0.00 0.00 0.00 44 1015.4
20260510164157 69 55 2.0 6.0 0.00 0.00 0.00 44 1015.8
20260510163652 68 50 3.0 9.0 0.00 0.00 0.00 47 1016.0
20260510163122 68 324 4.0 9.0 0.00 0.00 0.00 44 1015.9
20260510163031 67 285 2.0 9.0 0.00 0.00 0.00 44 1015.5
20260510162621 68 2 4.0 10.0 0.00 0.00 0.00 44 1016.0
20260510162055 68 317 3.0 10.0 0.00 0.00 0.00 42 1016.0
20260510161608 68 6 2.0 6.0 0.00 0.00 0.00 45 1015.6
20260510161551 68 8 3.0 6.0 0.00 0.00 0.00 45 1016.0
20260510161048 68 16 3.0 9.0 0.00 0.00 0.00 42 1015.9
20260510160746 68 324 3.0 9.0 0.00 0.00 0.00 41 1015.8
20260510160039 68 342 3.0 6.0 0.00 0.00 0.00 45 1015.3
20260510160019 68 343 2.0 6.0 0.00 0.00 0.00 45 1015.7
20260510155517 68 0 3.0 10.0 0.00 0.00 0.00 44 1015.7
20260510155013 67 338 3.0 10.0 0.00 0.00 0.00 48 1015.7
20260510154635 67 355 4.0 10.0 0.00 0.00 0.00 43 1015.4
20260510154507 67 25 3.0 8.0 0.00 0.00 0.00 44 1015.9
20260510154005 67 321 3.0 7.0 0.00 0.00 0.00 45 1015.9
20260510153502 67 344 2.0 9.0 0.00 0.00 0.00 46 1015.8
20260510153217 67 305 3.0 9.0 0.00 0.00 0.00 43 1015.8
20260510153019 67 327 2.0 9.0 0.00 0.00 0.00 43 1015.4
20260510152458 67 305 3.0 6.0 0.00 0.00 0.00 44 1015.7
20260510151929 67 209 3.0 8.0 0.00 0.00 0.00 46 1015.7
20260510151512 66 353 3.0 8.0 0.00 0.00 0.00 47 1015.2
20260510151426 67 312 3.0 8.0 0.00 0.00 0.00 45 1015.5
20260510151147 67 328 3.0 8.0 0.00 0.00 0.00 47 1015.5
20260510150421 66 201 3.0 8.0 0.00 0.00 0.00 45 1015.4
20260510150108 66 310 3.0 8.0 0.00 0.00 0.00 45 1015.0
20260510145854 66 347 2.0 7.0 0.00 0.00 0.00 46 1015.3
20260510145327 66 309 3.0 9.0 0.00 0.00 0.00 46 1015.3
20260510145041 66 326 2.0 9.0 0.00 0.00 0.00 44 1015.4
20260510144516 65 334 2.0 6.0 0.00 0.00 0.00 50 1015.0
20260510144323 66 332 3.0 7.0 0.00 0.00 0.00 50 1015.3
20260510143819 65 335 3.0 7.0 0.00 0.00 0.00 48 1015.3
20260510143317 65 347 2.0 10.0 0.00 0.00 0.00 48 1015.3
20260510143028 65 330 2.0 10.0 0.00 0.00 0.00 49 1014.8
20260510142753 65 310 3.0 10.0 0.00 0.00 0.00 51 1015.2
20260510142227 64 303 3.0 7.0 0.00 0.00 0.00 52 1015.0
20260510141920 64 335 3.0 7.0 0.00 0.00 0.00 54 1015.0
20260510141534 64 335 3.0 7.0 0.00 0.00 0.00 52 1014.6
20260510141133 64 341 2.0 6.0 0.00 0.00 0.00 53 1015.0
20260510140607 64 2 2.0 6.0 0.00 0.00 0.00 55 1015.0
20260510140304 64 331 2.0 4.0 0.00 0.00 0.00 55 1014.8
20260510140011 63 331 2.0 4.0 0.00 0.00 0.00 55 1014.4
20260510135514 63 338 2.0 5.0 0.00 0.00 0.00 57 1014.6
20260510135012 63 336 3.0 7.0 0.00 0.00 0.00 54 1014.5
20260510134507 63 10 2.0 7.0 0.00 0.00 0.00 55 1014.2
20260510134442 63 10 3.0 7.0 0.00 0.00 0.00 55 1014.5
20260510133943 63 324 2.0 6.0 0.00 0.00 0.00 57 1014.4
20260510133439 63 334 3.0 11.0 0.00 0.00 0.00 57 1014.2
20260510133041 62 351 2.0 8.0 0.00 0.00 0.00 59 1013.7
20260510132912 62 333 4.0 10.0 0.00 0.00 0.00 59 1014.1
20260510132410 62 354 3.0 11.0 0.00 0.00 0.00 59 1013.9
20260510131908 62 349 3.0 7.0 0.00 0.00 0.00 61 1013.8
20260510131602 62 340 4.0 7.0 0.00 0.00 0.00 61 1013.8
20260510131509 61 349 2.0 6.0 0.00 0.00 0.00 61 1013.3
20260510130839 61 358 3.0 7.0 0.00 0.00 0.00 62 1013.7
20260510130310 61 298 3.0 10.0 0.00 0.00 0.00 64 1013.6
20260510130107 60 313 2.0 10.0 0.00 0.00 0.00 66 1013.3
20260510125806 60 297 3.0 10.0 0.00 0.00 0.00 65 1013.6
20260510125241 60 284 3.0 6.0 0.00 0.00 0.00 66 1013.5
20260510124717 59 340 2.0 7.0 0.00 0.00 0.00 68 1013.5
20260510124534 58 338 2.0 6.0 0.00 0.00 0.00 69 1013.0
20260510124147 59 286 2.0 7.0 0.00 0.00 0.00 70 1013.4
20260510123647 58 283 1.0 4.0 0.00 0.00 0.00 71 1013.3
20260510123335 58 284 2.0 4.0 0.00 0.00 0.00 71 1013.2
20260510123025 58 284 1.0 4.0 0.00 0.00 0.00 71 1012.8
20260510122617 58 284 2.0 7.0 0.00 0.00 0.00 72 1013.2
20260510122048 58 284 2.0 7.0 0.00 0.00 0.00 72 1013.1
20260510121806 57 285 2.0 6.0 0.00 0.00 0.00 72 1013.1
20260510121515 57 285 1.0 6.0 0.00 0.00 0.00 72 1012.6
20260510121018 57 284 2.0 5.0 0.00 0.00 0.00 73 1012.8
20260510120450 57 283 3.0 5.0 0.00 0.00 0.00 73 1012.6
20260510120015 56 283 2.0 5.0 0.00 0.01 0.00 73 1012.2
20260510115925 57 283 3.0 7.0 0.00 0.00 0.00 73 1012.6
20260510115638 57 284 3.0 7.0 0.00 0.00 0.00 73 1012.3
20260510114916 57 285 3.0 7.0 0.00 0.00 0.00 74 1012.3
20260510114524 56 284 2.0 6.0 0.00 0.01 0.00 74 1012.0
20260510114346 57 284 3.0 7.0 0.00 0.00 0.00 74 1012.5
20260510114108 57 284 2.0 5.0 0.00 0.00 0.00 75 1012.5
20260510113319 57 284 2.0 7.0 0.00 0.00 0.00 75 1012.5
20260510113029 56 284 2.0 6.0 0.00 0.01 0.00 75 1012.1
20260510112750 56 284 2.0 3.0 0.00 0.00 0.00 76 1012.5
20260510112733 56 284 2.0 4.0 0.00 0.00 0.00 76 1012.2
20260510111720 57 284 1.0 4.0 0.00 0.00 0.00 76 1012.4
20260510111519 56 284 1.0 4.0 0.00 0.01 0.00 77 1012.3
20260510111219 57 285 1.0 2.0 0.00 0.00 0.00 77 1012.6
20260510110659 57 285 1.0 2.0 0.00 0.00 0.00 79 1012.6
20260510110128 57 286 1.0 2.0 0.00 0.01 0.00 79 1012.5
20260510110057 57 286 0.0 2.0 0.00 0.01 0.00 78 1012.2
20260510105602 57 286 1.0 3.0 0.00 0.01 0.00 76 1012.3
20260510105034 57 285 1.0 4.0 0.00 0.01 0.00 75 1012.0
20260510104601 57 282 2.0 8.0 0.00 0.04 0.00 75 1011.5
20260510104508 57 283 2.0 8.0 0.00 0.01 0.00 75 1011.8
20260510103944 57 283 1.0 8.0 0.00 0.01 0.00 75 1011.6
20260510103415 57 284 2.0 8.0 0.00 0.02 0.00 76 1011.6
20260510103106 57 287 1.0 8.0 0.00 0.04 0.00 76 1011.1
20260510102915 58 287 2.0 8.0 0.00 0.02 0.00 76 1011.5
20260510102346 58 284 2.0 11.0 0.00 0.02 0.00 76 1011.5
20260510102047 58 284 2.0 11.0 0.00 0.02 0.00 77 1011.4
20260510101532 57 284 3.0 11.0 0.00 0.04 0.00 77 1010.9
20260510101253 58 286 2.0 5.0 0.00 0.03 0.00 78 1011.3
20260510100751 58 286 2.0 7.0 0.00 0.03 0.00 78 1011.3
20260510100223 58 288 2.0 7.0 0.00 0.04 0.00 79 1011.2
20260510100022 58 288 2.0 6.0 0.00 0.04 0.00 79 1010.7
20260510095943 58 289 2.0 3.0 0.00 0.04 0.00 79 1011.1
20260510095152 58 290 2.0 3.0 0.00 0.04 0.00 79 1011.1
20260510094646 59 291 2.0 4.0 0.00 0.05 0.00 80 1011.1
20260510094610 58 291 1.0 4.0 0.00 0.07 0.00 80 1010.6
20260510094145 59 290 1.0 4.0 0.00 0.05 0.00 80 1011.1
20260510093621 59 273 1.0 2.0 0.00 0.05 0.00 80 1011.0
20260510093054 59 273 1.0 3.0 0.00 0.06 0.00 79 1011.1
20260510093002 59 273 1.0 3.0 0.00 0.07 0.00 79 1010.7
20260510092552 60 273 1.0 3.0 0.00 0.06 0.00 79 1011.0
20260510092029 60 288 1.0 3.0 0.00 0.06 0.00 78 1010.9
20260510091543 59 290 1.0 4.0 0.00 0.07 0.00 78 1010.4
20260510091523 60 290 2.0 4.0 0.00 0.06 0.00 78 1010.8
20260510091022 59 290 2.0 4.0 0.00 0.06 0.00 79 1010.7
20260510090457 60 290 1.0 3.0 0.00 0.06 0.00 78 1010.7
20260510090055 59 290 1.0 3.0 0.00 0.07 0.00 77 1010.3
20260510085928 60 290 1.0 3.0 0.00 0.07 0.00 77 1010.7
20260510085427 60 273 0.0 1.0 0.00 0.07 0.00 77 1010.6
20260510085132 60 290 0.0 1.0 0.00 0.07 0.00 77 1010.5
20260510084629 60 273 1.0 2.0 0.00 0.08 0.00 77 1010.5
20260510084555 59 273 0.0 2.0 0.00 0.10 0.00 77 1010.1
20260510084059 60 290 1.0 2.0 0.00 0.08 0.00 77 1010.5
20260510083537 60 273 0.0 2.0 0.00 0.08 0.00 77 1010.4
20260510083007 59 273 0.0 2.0 0.00 0.10 0.00 77 1010.1
20260510082817 60 273 1.0 3.0 0.00 0.09 0.00 77 1010.4
20260510082253 60 273 0.0 3.0 0.00 0.09 0.00 77 1010.3
20260510081751 60 273 1.0 3.0 0.00 0.09 0.00 76 1010.3
20260510081545 60 273 0.0 3.0 0.00 0.10 0.00 76 1009.8
20260510081254 60 291 1.0 3.0 0.00 0.10 0.00 76 1009.9
20260510080553 60 273 1.0 3.0 0.00 0.10 0.00 75 1009.8
20260510080106 60 273 0.0 2.0 0.00 0.10 0.00 75 1009.4
20260510080027 60 292 1.0 3.0 0.00 0.10 0.00 75 1009.8
20260510075505 60 273 1.0 3.0 0.00 0.10 0.00 75 1009.7
20260510074938 60 273 1.0 3.0 0.00 0.11 0.00 74 1009.5
20260510074638 61 273 1.0 3.0 0.00 0.11 0.00 74 1009.7
20260510074538 60 273 0.0 3.0 0.00 0.13 0.00 74 1009.1
20260510073915 61 290 1.0 4.0 0.00 0.11 0.00 74 1009.5
20260510073618 61 273 2.0 4.0 0.00 0.12 0.00 74 1009.6
20260510073020 61 273 1.0 4.0 0.00 0.13 0.00 73 1009.2
20260510072831 61 273 2.0 4.0 0.00 0.12 0.00 73 1009.7
20260510072329 62 273 2.0 4.0 0.00 0.12 0.00 72 1009.6
20260510071827 62 273 2.0 4.0 0.00 0.12 0.00 71 1009.6
20260510071539 62 273 1.0 4.0 0.00 0.13 0.00 70 1009.1
20260510071312 62 273 1.0 4.0 0.00 0.12 0.00 70 1009.6
20260510071036 63 286 1.0 4.0 0.00 0.13 0.00 69 1009.4
20260510070249 63 286 1.0 5.0 0.00 0.13 0.00 69 1009.5
20260510070025 62 286 0.0 5.0 0.00 0.13 0.00 69 1009.1
20260510065738 63 285 1.0 5.0 0.00 0.13 0.00 69 1009.5
20260510065237 63 285 2.0 4.0 0.00 0.14 0.00 68 1009.4
20260510065226 64 286 1.0 4.0 0.00 0.14 0.00 67 1009.4
20260510064511 63 286 1.0 3.0 0.00 0.15 0.00 67 1009.0
20260510064439 64 286 1.0 3.0 0.00 0.14 0.00 67 1009.5
20260510063710 64 286 1.0 3.0 0.00 0.14 0.00 67 1009.5
20260510063142 64 286 1.0 3.0 0.00 0.14 0.00 67 1009.5
20260510063016 63 286 1.0 3.0 0.00 0.15 0.00 67 1009.1
20260510062901 64 286 1.0 2.0 0.00 0.14 0.00 67 1009.6
20260510062349 64 286 1.0 3.0 0.00 0.14 0.00 67 1009.5
20260510061819 64 286 1.0 3.0 0.00 0.14 0.00 67 1009.6
20260510061033 64 286 1.0 3.0 0.00 0.15 0.00 67 1009.7
20260510060537 64 286 1.0 3.0 0.00 0.15 0.00 67 1009.7
20260510060047 63 286 1.0 3.0 0.00 0.15 0.00 67 1009.3
20260510060009 64 286 2.0 5.0 0.00 0.15 0.00 67 1009.7
20260510055446 63 273 2.0 5.0 0.00 0.15 0.00 69 1009.7
20260510054926 63 287 2.0 5.0 0.00 0.15 0.00 70 1009.6
20260510054536 62 286 1.0 5.0 0.00 0.16 0.00 70 1009.3
20260510054359 62 286 2.0 5.0 0.00 0.15 0.00 71 1009.7
20260510053830 62 285 2.0 3.0 0.00 0.16 0.00 70 1009.7
20260510053333 62 285 2.0 3.0 0.00 0.16 0.00 70 1009.6
20260510053048 62 285 1.0 4.0 0.00 0.16 0.00 69 1009.1
20260510052808 63 285 1.0 4.0 0.00 0.16 0.00 69 1009.5
20260510052526 63 286 1.0 3.0 0.00 0.16 0.00 69 1009.5
20260510051804 63 286 1.0 3.0 0.00 0.16 0.00 68 1009.6
20260510051526 62 286 0.0 3.0 0.00 0.16 0.00 68 1009.2
20260510051236 63 286 1.0 3.0 0.00 0.16 0.00 68 1009.5
20260510050948 63 286 1.0 3.0 0.00 0.16 0.00 68 1009.5
20260510050230 63 286 2.0 3.0 0.00 0.16 0.00 68 1009.6
20260510050003 62 286 1.0 3.0 0.00 0.18 0.00 68 1009.2
20260510045703 63 286 2.0 4.0 0.00 0.16 0.00 67 1009.5
20260510045422 63 286 2.0 4.0 0.00 0.16 0.00 67 1009.5
20260510044646 63 286 2.0 3.0 0.00 0.16 0.00 67 1009.5
20260510044503 63 286 1.0 3.0 0.00 0.18 0.00 66 1009.2
20260510044144 64 286 2.0 4.0 0.00 0.16 0.00 66 1009.6
20260510043644 64 286 1.0 4.0 0.00 0.17 0.00 66 1009.6
20260510043143 64 286 2.0 3.0 0.00 0.17 0.00 66 1009.6
20260510043029 63 286 1.0 3.0 0.00 0.18 0.00 66 1009.2
20260510042644 64 286 2.0 3.0 0.00 0.17 0.00 65 1009.6
20260510042140 64 286 1.0 3.0 0.00 0.17 0.00 65 1009.6
20260510041638 64 286 1.0 2.0 0.00 0.18 0.00 64 1009.5
20260510041606 64 286 0.0 2.0 0.00 0.18 0.00 64 1009.2
20260510041109 64 286 1.0 2.0 0.00 0.18 0.00 64 1009.5
20260510040829 64 286 0.0 2.0 0.00 0.18 0.00 64 1009.6
20260510040012 64 286 0.0 2.0 0.00 0.18 0.00 64 1009.2
20260510035606 64 286 1.0 2.0 0.00 0.18 0.18 64 1009.5
20260510035257 65 286 1.0 2.0 0.00 0.18 0.18 63 1009.5
20260510034528 64 286 0.0 3.0 0.00 0.18 0.18 63 1009.1
20260510034511 65 286 1.0 3.0 0.00 0.18 0.18 63 1009.5
20260510034008 65 286 1.0 3.0 0.00 0.18 0.18 62 1009.4
20260510033441 65 286 0.0 2.0 0.00 0.18 0.18 62 1009.4
20260510032914 65 286 0.0 1.0 0.00 0.18 0.18 62 1009.5
20260510032405 65 286 0.0 1.0 0.00 0.18 0.18 62 1009.4
20260510031901 65 286 0.0 1.0 0.00 0.18 0.18 61 1009.4
20260510031526 65 286 0.0 1.0 0.00 0.18 0.18 61 1009.0
20260510031359 65 286 0.0 2.0 0.00 0.18 0.18 61 1009.3
20260510030855 65 286 0.0 1.0 0.00 0.18 0.18 60 1009.3
20260510030353 65 286 0.0 2.0 0.00 0.18 0.18 60 1009.3
20260510030050 65 286 0.0 2.0 0.00 0.18 0.18 60 1008.9
20260510025849 65 286 0.0 1.0 0.00 0.18 0.18 60 1009.3
20260510025324 66 286 0.0 2.0 0.00 0.18 0.18 60 1009.3
20260510024755 66 286 0.0 2.0 0.00 0.18 0.18 59 1009.2
20260510024555 66 286 0.0 2.0 0.00 0.18 0.18 59 1008.8
20260510024254 66 286 1.0 2.0 0.00 0.18 0.18 59 1009.1
20260510023948 67 286 1.0 3.0 0.00 0.18 0.18 59 1009.0
20260510023200 67 286 1.0 3.0 0.00 0.18 0.18 58 1009.1
20260510023111 66 286 0.0 3.0 0.00 0.18 0.18 58 1008.7
20260510022922 67 286 1.0 5.0 0.00 0.18 0.18 58 1009.0
20260510022132 67 286 2.0 5.0 0.00 0.18 0.18 57 1008.9
20260510021604 67 286 2.0 5.0 0.00 0.18 0.18 57 1008.9
20260510021552 68 286 2.0 5.0 0.00 0.18 0.18 56 1008.6
20260510021512 67 286 1.0 5.0 0.00 0.18 0.18 57 1008.5
20260510020536 68 286 2.0 4.0 0.00 0.18 0.18 56 1008.7
20260510020232 68 286 2.0 7.0 0.00 0.18 0.18 55 1008.5
20260510020026 67 286 0.0 6.0 0.00 0.18 0.18 55 1008.2
20260510015506 68 286 2.0 7.0 0.00 0.18 0.18 56 1008.5
20260510014937 68 287 2.0 8.0 0.00 0.18 0.18 56 1008.4
20260510014516 67 286 2.0 8.0 0.00 0.18 0.18 56 1008.0
20260510014435 68 286 2.0 8.0 0.00 0.18 0.18 55 1008.3
20260510013933 68 286 2.0 5.0 0.00 0.18 0.18 56 1008.2
20260510013403 68 287 2.0 5.0 0.00 0.18 0.18 55 1008.1
20260510013049 68 288 2.0 6.0 0.00 0.18 0.18 55 1007.8
20260510012900 68 286 2.0 7.0 0.00 0.18 0.18 55 1008.0
20260510012335 69 286 2.0 7.0 0.00 0.18 0.18 55 1007.8
20260510011806 69 287 2.0 7.0 0.00 0.18 0.18 55 1007.9
20260510011606 68 287 1.0 6.0 0.00 0.18 0.18 55 1007.7
20260510011528 69 286 2.0 7.0 0.00 0.18 0.18 55 1007.9
20260510011000 69 288 2.0 7.0 0.00 0.18 0.18 54 1007.8
20260510010233 69 287 2.0 7.0 0.00 0.18 0.18 54 1007.8
20260510010008 69 287 2.0 6.0 0.00 0.18 0.18 54 1007.4
20260510005710 69 286 2.0 5.0 0.00 0.18 0.18 54 1007.6
20260510005155 70 286 2.0 5.0 0.00 0.18 0.18 53 1007.6
20260510004658 70 288 2.0 5.0 0.00 0.18 0.18 53 1007.4
20260510004518 70 288 2.0 5.0 0.00 0.18 0.18 53 1007.2
20260510004130 70 158 2.0 7.0 0.00 0.18 0.18 52 1007.4
20260510003631 71 194 2.0 7.0 0.00 0.18 0.18 51 1007.4
20260510003059 71 161 3.0 9.0 0.00 0.18 0.18 51 1007.2
20260510003021 71 160 2.0 9.0 0.00 0.18 0.18 51 1007.0
20260510002558 71 142 3.0 9.0 0.00 0.18 0.18 51 1007.2
20260510002034 71 189 3.0 9.0 0.00 0.18 0.18 51 1007.1
20260510001546 71 137 2.0 9.0 0.00 0.18 0.18 49 1006.7
20260510001529 72 137 3.0 9.0 0.00 0.18 0.18 49 1007.0
20260510001027 72 165 4.0 13.0 0.00 0.18 0.18 49 1007.0
20260510000458 73 167 4.0 13.0 0.00 0.18 0.18 49 1006.9
20260510000043 72 203 5.0 13.0 0.00 0.18 0.18 47 1006.5
20260509235958 73 142 4.0 13.0 0.00 0.18 0.18 47 1006.9
20260509235453 73 116 4.0 14.0 0.00 0.18 0.18 48 1006.8
20260509235208 73 157 4.0 14.0 0.00 0.18 0.18 47 1006.7
20260509234553 73 132 4.0 14.0 0.00 0.18 0.18 46 1006.4
20260509234422 73 97 5.0 16.0 0.00 0.18 0.18 46 1006.7
20260509233917 74 100 6.0 16.0 0.00 0.18 0.18 46 1006.7
20260509233418 74 82 5.0 15.0 0.00 0.18 0.18 46 1006.6
20260509233015 73 140 5.0 14.0 0.00 0.18 0.18 46 1006.3
20260509232851 74 182 4.0 10.0 0.00 0.18 0.18 47 1006.6
20260509232346 74 132 5.0 12.0 0.00 0.18 0.18 47 1006.6
20260509231819 74 226 5.0 13.0 0.00 0.18 0.18 46 1006.5
20260509231513 74 153 6.0 15.0 0.00 0.18 0.18 46 1006.2
20260509231318 74 205 5.0 15.0 0.00 0.18 0.18 46 1006.5
20260509230753 74 246 6.0 15.0 0.00 0.18 0.18 46 1006.5
20260509230254 74 185 5.0 15.0 0.00 0.18 0.18 46 1006.4
20260509230007 74 114 7.0 15.0 0.00 0.18 0.18 46 1006.1
20260509225733 74 174 5.0 12.0 0.00 0.18 0.18 47 1006.4
20260509225235 74 145 4.0 12.0 0.00 0.18 0.18 47 1006.4
20260509224712 74 103 5.0 14.0 0.00 0.18 0.18 47 1006.4
20260509224509 74 180 3.0 14.0 0.00 0.18 0.18 47 1006.1
20260509224209 74 214 6.0 15.0 0.00 0.18 0.18 47 1006.4
20260509223915 74 124 7.0 15.0 0.00 0.18 0.18 47 1006.4
20260509223153 74 118 7.0 19.0 0.00 0.18 0.18 46 1006.4
20260509223018 74 132 6.0 19.0 0.00 0.18 0.18 47 1006.1
20260509222629 74 97 6.0 19.0 0.00 0.18 0.18 47 1006.4
20260509222336 74 136 5.0 14.0 0.00 0.18 0.18 48 1006.4
20260509221539 74 207 6.0 15.0 0.00 0.18 0.18 49 1006.3
20260509221509 74 121 6.0 15.0 0.00 0.18 0.18 47 1006.4
20260509220519 74 115 6.0 19.0 0.00 0.18 0.18 47 1006.3
20260509220048 74 121 5.0 19.0 0.00 0.18 0.18 48 1006.1
20260509220019 74 119 6.0 19.0 0.00 0.18 0.18 48 1006.4
20260509215517 74 132 7.0 15.0 0.00 0.18 0.18 48 1006.4
20260509215019 74 156 6.0 12.0 0.00 0.18 0.18 48 1006.4
20260509214522 74 84 5.0 15.0 0.00 0.18 0.18 49 1006.2
20260509214505 74 102 6.0 15.0 0.00 0.18 0.18 49 1006.5
20260509214005 74 159 7.0 20.0 0.00 0.18 0.18 49 1006.4
20260509213506 74 99 7.0 20.0 0.00 0.18 0.18 48 1006.5
20260509213021 74 95 8.0 17.0 0.00 0.18 0.18 47 1006.3
20260509212947 74 90 7.0 17.0 0.00 0.18 0.18 47 1006.4
20260509212438 74 192 7.0 14.0 0.00 0.18 0.18 46 1006.5
20260509211541 74 111 6.0 13.0 0.00 0.18 0.18 48 1006.3
20260509211421 74 71 6.0 13.0 0.00 0.18 0.18 48 1006.5
20260509211147 74 107 6.0 12.0 0.00 0.18 0.18 47 1006.6
20260509210423 74 106 6.0 16.0 0.00 0.18 0.18 49 1006.5
20260509205900 74 111 6.0 16.0 0.00 0.18 0.18 48 1006.6
20260509205349 74 129 5.0 14.0 0.00 0.18 0.18 49 1006.6
20260509204847 74 220 5.0 14.0 0.00 0.18 0.18 48 1006.6
20260509204531 74 95 6.0 14.0 0.00 0.18 0.18 49 1006.4
20260509204346 74 138 5.0 20.0 0.00 0.18 0.18 49 1006.6
20260509203820 74 144 5.0 20.0 0.00 0.18 0.18 47 1006.7
20260509203319 74 104 5.0 13.0 0.00 0.18 0.18 49 1006.7
20260509203055 73 205 5.0 12.0 0.00 0.18 0.18 52 1006.5
20260509202757 73 183 5.0 16.0 0.00 0.18 0.18 50 1006.8
20260509202236 73 141 4.0 16.0 0.00 0.18 0.18 54 1006.9
20260509201715 73 138 5.0 11.0 0.00 0.18 0.18 53 1006.9
20260509201533 72 88 3.0 11.0 0.00 0.18 0.18 51 1006.6
20260509201151 72 118 7.0 14.0 0.00 0.18 0.18 52 1006.9
20260509200655 72 118 6.0 14.0 0.00 0.18 0.18 50 1007.0
20260509200131 72 173 7.0 14.0 0.00 0.18 0.18 54 1007.1
20260509200105 72 153 4.0 14.0 0.00 0.18 0.18 54 1006.9
20260509195604 72 62 6.0 14.0 0.00 0.18 0.18 53 1007.0
20260509195040 72 140 6.0 12.0 0.00 0.18 0.18 53 1007.1
20260509194543 72 105 6.0 12.0 0.00 0.18 0.18 54 1007.2
20260509194517 71 96 5.0 11.0 0.00 0.18 0.18 54 1006.9
20260509194238 71 137 5.0 12.0 0.00 0.18 0.18 55 1007.3
20260509193516 72 147 6.0 17.0 0.00 0.18 0.18 56 1007.4
20260509193029 71 102 3.0 17.0 0.00 0.18 0.18 58 1007.2
20260509193011 71 66 6.0 17.0 0.00 0.18 0.18 58 1007.4
20260509192513 71 97 5.0 11.0 0.00 0.18 0.18 56 1007.4
20260509191951 71 95 6.0 13.0 0.00 0.18 0.18 57 1007.5
20260509191514 71 88 6.0 13.0 0.00 0.18 0.18 56 1007.3
20260509191430 71 63 6.0 13.0 0.00 0.18 0.18 56 1007.6
20260509190909 71 120 5.0 11.0 0.00 0.18 0.18 57 1007.6
20260509190339 71 150 5.0 12.0 0.00 0.18 0.18 59 1007.6
20260509190008 70 116 4.0 12.0 0.00 0.18 0.18 57 1007.5
20260509185814 71 197 5.0 11.0 0.00 0.18 0.18 58 1007.7
20260509185307 70 130 4.0 10.0 0.00 0.18 0.18 61 1007.7
20260509184806 71 120 4.0 10.0 0.00 0.18 0.18 58 1007.7
20260509184553 70 103 3.0 10.0 0.00 0.18 0.18 63 1007.5
20260509184306 70 95 4.0 8.0 0.00 0.18 0.18 60 1007.7
20260509183801 70 219 4.0 11.0 0.00 0.18 0.18 61 1007.6
20260509183257 69 146 4.0 11.0 0.00 0.18 0.18 62 1007.7
20260509183055 69 154 3.0 11.0 0.00 0.18 0.18 62 1007.5
20260509182753 69 62 5.0 15.0 0.00 0.18 0.18 62 1007.7
20260509182229 69 135 4.0 14.0 0.00 0.18 0.18 62 1007.8
20260509181724 69 166 5.0 9.0 0.00 0.18 0.18 63 1007.8
20260509181555 68 123 4.0 11.0 0.00 0.18 0.18 64 1007.6
20260509181159 68 201 5.0 17.0 0.00 0.18 0.18 65 1007.9
20260509180631 69 161 5.0 14.0 0.00 0.18 0.18 61 1007.8
20260509180118 69 134 5.0 14.0 0.00 0.18 0.18 61 1007.8
20260509180038 69 140 6.0 14.0 0.00 0.18 0.18 62 1007.7
20260509175619 69 137 5.0 11.0 0.00 0.18 0.18 63 1007.8
20260509175119 69 94 5.0 11.0 0.00 0.18 0.18 67 1007.8
20260509174552 69 134 5.0 11.0 0.00 0.18 0.18 63 1007.7
20260509174528 68 128 5.0 11.0 0.00 0.18 0.18 63 1007.5
20260509174045 68 111 5.0 14.0 0.00 0.18 0.18 64 1007.8
20260509173521 68 138 5.0 13.0 0.00 0.18 0.18 64 1007.7
20260509173045 67 108 5.0 13.0 0.00 0.18 0.18 62 1007.6
20260509172955 68 169 4.0 13.0 0.00 0.18 0.18 64 1007.9
20260509172451 68 111 4.0 12.0 0.00 0.18 0.18 65 1008.0
20260509171949 68 107 4.0 12.0 0.00 0.18 0.18 65 1007.9
20260509171526 67 115 3.0 12.0 0.00 0.18 0.18 64 1007.7
20260509171447 67 192 5.0 12.0 0.00 0.18 0.18 63 1007.9
20260509170919 67 142 5.0 11.0 0.00 0.18 0.18 66 1008.0
20260509170417 67 161 5.0 11.0 0.00 0.18 0.18 66 1008.0